• En España
  • Lista de países
  • Para 7 días
  • Temperatura del agua
  • Mapa Satelital
  • El tiempo en el mapa
  • Informadores
  • user-avatar
    Iniciar sesión

    Tiempo cada hora Elbasan

    Hoy, 19 Octubre, Viernes

    Tiempo Temperatura Precipitaciones Viento Presión Humedad
    00:00 +18°C° 0 mm 1 mps 735 mmHg 69%
    01:00 +18°C° 0 mm 1 mps 735 mmHg 71%
    02:00 +18°C° 0 mm 1 mps 735 mmHg 72%
    03:00 +18°C° 0 mm 1 mps 735 mmHg 72%
    04:00 +16°C° 0 mm 1 mps 735 mmHg 73%
    05:00 +18°C° 0 mm 1 mps 735 mmHg 72%
    06:00 +18°C° 0 mm 1 mps 735 mmHg 70%
    07:00 +19°C° 0 mm 1 mps 735 mmHg 69%
    08:00 +21°C° 0 mm 1 mps 735 mmHg 61%
    09:00 +23°C° 0 mm 1 mps 736 mmHg 53%
    10:00 +25°C° 0 mm 1 mps 736 mmHg 46%
    11:00 +26°C° 0 mm 1 mps 736 mmHg 43%
    12:00 +27°C° 0 mm 2 mps 736 mmHg 41%
    13:00 +27°C° 0 mm 2 mps 736 mmHg 38%
    14:00 +26°C° 0 mm 2 mps 735 mmHg 41%
    15:00 +26°C° 0 mm 2 mps 735 mmHg 43%
    16:00 +25°C° 0 mm 2 mps 735 mmHg 45%
    17:00 +23°C° 0 mm 2 mps 735 mmHg 50%
    18:00 +21°C° 0 mm 1 mps 736 mmHg 56%
    19:00 +19°C° 0 mm 1 mps 736 mmHg 61%
    20:00 +19°C° 0 mm 1 mps 736 mmHg 62%
    21:00 +18°C° 0 mm 1 mps 736 mmHg 63%
    22:00 +18°C° 0 mm 1 mps 736 mmHg 64%
    23:00 +18°C° 0 mm 1 mps 737 mmHg 66%

    Mañana, 20 Octubre, Sábado

    Tiempo Temperatura Precipitaciones Viento Presión Humedad
    00:00 +16°C° 0 mm 1 mps 737 mmHg 67%
    01:00 +16°C° 0 mm 1 mps 737 mmHg 69%
    02:00 +16°C° 0 mm 1 mps 737 mmHg 70%
    03:00 +16°C° 0 mm 1 mps 737 mmHg 72%
    04:00 +15°C° 0 mm 1 mps 737 mmHg 74%
    05:00 +16°C° 0 mm 1 mps 737 mmHg 73%
    06:00 +16°C° 0 mm 1 mps 737 mmHg 72%
    07:00 +18°C° 0 mm 1 mps 737 mmHg 71%
    08:00 +20°C° 0 mm 1 mps 738 mmHg 63%
    09:00 +22°C° 0 mm 1 mps 738 mmHg 56%
    10:00 +24°C° 0 mm 1 mps 738 mmHg 48%
    11:00 +24°C° 0 mm 2 mps 738 mmHg 45%
    12:00 +25°C° 0 mm 2 mps 738 mmHg 43%
    13:00 +25°C° 0 mm 3 mps 737 mmHg 41%
    14:00 +25°C° 0 mm 3 mps 737 mmHg 43%
    15:00 +24°C° 0 mm 3 mps 737 mmHg 45%
    16:00 +22°C° 0 mm 3 mps 737 mmHg 47%
    17:00 +21°C° 0 mm 3 mps 737 mmHg 52%
    18:00 +19°C° 0 mm 2 mps 737 mmHg 57%
    19:00 +17°C° 0 mm 2 mps 737 mmHg 62%
    20:00 +17°C° 0 mm 2 mps 738 mmHg 64%
    21:00 +16°C° 0 mm 2 mps 738 mmHg 65%
    22:00 +16°C° 0 mm 2 mps 738 mmHg 67%
    23:00 +15°C° 0 mm 2 mps 738 mmHg 68%

    Pasado mañana, 21 Octubre, Domingo

    Tiempo Temperatura Precipitaciones Viento Presión Humedad
    00:00 +15°C° 0 mm 2 mps 738 mmHg 69%
    01:00 +15°C° 0 mm 2 mps 738 mmHg 71%
    02:00 +14°C° 0 mm 2 mps 738 mmHg 72%
    03:00 +14°C° 0 mm 2 mps 737 mmHg 73%
    04:00 +14°C° 0 mm 2 mps 737 mmHg 75%
    05:00 +14°C° 0 mm 2 mps 737 mmHg 73%
    06:00 +14°C° 0 mm 2 mps 737 mmHg 72%
    07:00 +15°C° 0 mm 2 mps 737 mmHg 71%
    08:00 +17°C° 0 mm 2 mps 737 mmHg 63%
    09:00 +19°C° 0 mm 2 mps 737 mmHg 55%
    10:00 +22°C° 0 mm 1 mps 737 mmHg 46%
    11:00 +21°C° 0 mm 2 mps 737 mmHg 44%
    12:00 +23°C° 0 mm 2 mps 736 mmHg 42%
    13:00 +23°C° 0 mm 2 mps 736 mmHg 40%
    14:00 +23°C° 0 mm 2 mps 736 mmHg 43%
    15:00 +21°C° 0 mm 3 mps 735 mmHg 47%
    16:00 +20°C° 0 mm 3 mps 735 mmHg 50%
    17:00 +18°C° 0.1 mm 2 mps 735 mmHg 58%
    18:00 +17°C° 0.1 mm 2 mps 734 mmHg 65%
    19:00 +15°C° 0.1 mm 1 mps 734 mmHg 73%
    20:00 +15°C° 0.1 mm 1 mps 734 mmHg 75%
    21:00 +14°C° 0.1 mm 1 mps 734 mmHg 78%
    22:00 +14°C° 0.1 mm 1 mps 734 mmHg 80%
    23:00 +13°C° 0.1 mm 1 mps 734 mmHg 81%

    22 Octubre, Lunes

    Tiempo Temperatura Precipitaciones Viento Presión Humedad
    00:00 +13°C° 0.1 mm 1 mps 733 mmHg 83%
    01:00 +13°C° 0.1 mm 2 mps 733 mmHg 84%
    02:00 +13°C° 0.4 mm 2 mps 733 mmHg 84%
    03:00 +12°C° 0.4 mm 2 mps 732 mmHg 84%
    04:00 +12°C° 0.4 mm 2 mps 732 mmHg 84%
    05:00 +12°C° 0.6 mm 2 mps 732 mmHg 83%
    06:00 +13°C° 0.6 mm 2 mps 732 mmHg 81%
    07:00 +12°C° 0.6 mm 3 mps 732 mmHg 80%
    08:00 +12°C° 1 mm 3 mps 732 mmHg 75%
    09:00 +13°C° 1 mm 3 mps 732 mmHg 71%
    10:00 +13°C° 1 mm 3 mps 732 mmHg 67%
    11:00 +13°C° 0.7 mm 3 mps 732 mmHg 66%
    12:00 +13°C° 0.7 mm 3 mps 731 mmHg 65%
    13:00 +13°C° 0.7 mm 3 mps 731 mmHg 64%
    14:00 +12°C° 0.6 mm 3 mps 731 mmHg 65%
    15:00 +12°C° 0.6 mm 3 mps 731 mmHg 67%
    16:00 +11°C° 0.6 mm 3 mps 731 mmHg 69%
    17:00 +11°C° 0.7 mm 3 mps 731 mmHg 72%
    18:00 +10°C° 0.7 mm 3 mps 731 mmHg 75%
    19:00 +10°C° 0.7 mm 3 mps 731 mmHg 78%
    20:00 +10°C° 0.1 mm 3 mps 731 mmHg 78%
    21:00 +9°C° 0.1 mm 3 mps 731 mmHg 79%
    22:00 +9°C° 0.1 mm 2 mps 731 mmHg 80%
    23:00 +9°C° 0.3 mm 2 mps 731 mmHg 80%

    23 Octubre, Martes

    Tiempo Temperatura Precipitaciones Viento Presión Humedad
    00:00 +9°C° 0.3 mm 2 mps 731 mmHg 80%
    01:00 +9°C° 0.3 mm 2 mps 731 mmHg 81%
    02:00 +9°C° 0.1 mm 2 mps 731 mmHg 81%
    03:00 +8°C° 0.1 mm 2 mps 731 mmHg 82%
    04:00 +8°C° 0.1 mm 2 mps 731 mmHg 82%
    05:00 +9°C° 0 mm 2 mps 731 mmHg 81%
    06:00 +9°C° 0 mm 2 mps 731 mmHg 80%
    07:00 +10°C° 0 mm 2 mps 731 mmHg 79%
    08:00 +12°C° 0 mm 2 mps 732 mmHg 73%
    09:00 +14°C° 0 mm 2 mps 732 mmHg 67%
    10:00 +16°C° 0 mm 3 mps 732 mmHg 60%
    11:00 +17°C° 0 mm 3 mps 732 mmHg 57%
    12:00 +18°C° 0 mm 3 mps 732 mmHg 54%
    13:00 +18°C° 0 mm 3 mps 732 mmHg 51%
    14:00 +18°C° 0 mm 3 mps 731 mmHg 53%
    15:00 +17°C° 0 mm 3 mps 731 mmHg 55%
    16:00 +17°C° 0 mm 3 mps 731 mmHg 57%
    17:00 +14°C° 0 mm 3 mps 732 mmHg 62%
    18:00 +13°C° 0 mm 3 mps 732 mmHg 67%
    19:00 +11°C° 0 mm 3 mps 732 mmHg 72%
    20:00 +11°C° 0 mm 3 mps 732 mmHg 73%
    21:00 +11°C° 0 mm 3 mps 732 mmHg 75%
    22:00 +10°C° 0 mm 3 mps 733 mmHg 76%
    23:00 +10°C° 0 mm 3 mps 732 mmHg 77%

    24 Octubre, Miércoles

    Tiempo Temperatura Precipitaciones Viento Presión Humedad
    00:00 +10°C° 0 mm 3 mps 732 mmHg 77%
    01:00 +10°C° 0 mm 3 mps 732 mmHg 77%
    02:00 +10°C° 0 mm 3 mps 732 mmHg 77%
    03:00 +9°C° 0 mm 3 mps 732 mmHg 76%
    04:00 +9°C° 0 mm 3 mps 733 mmHg 76%
    05:00 +9°C° 0 mm 3 mps 733 mmHg 74%
    06:00 +10°C° 0 mm 3 mps 733 mmHg 72%
    07:00 +10°C° 0 mm 3 mps 733 mmHg 71%
    08:00 +11°C° 0 mm 3 mps 733 mmHg 64%
    09:00 +13°C° 0 mm 3 mps 734 mmHg 57%
    10:00 +16°C° 0 mm 2 mps 734 mmHg 50%
    11:00 +16°C° 0 mm 2 mps 734 mmHg 48%
    12:00 +17°C° 0 mm 2 mps 733 mmHg 46%
    13:00 +19°C° 0 mm 1 mps 733 mmHg 44%
    14:00 +18°C° 0 mm 2 mps 733 mmHg 46%
    15:00 +17°C° 0 mm 2 mps 733 mmHg 48%
    16:00 +17°C° 0 mm 2 mps 733 mmHg 51%
    17:00 +15°C° 0 mm 2 mps 733 mmHg 55%
    18:00 +14°C° 0 mm 2 mps 733 mmHg 60%
    19:00 +12°C° 0 mm 1 mps 733 mmHg 64%
    20:00 +12°C° 0 mm 1 mps 734 mmHg 65%
    21:00 +12°C° 0 mm 1 mps 734 mmHg 67%
    22:00 +11°C° 0 mm 1 mps 734 mmHg 68%
    23:00 +11°C° 0 mm 1 mps 734 mmHg 68%
    Mostrar más